Camarillo, CA

6:03 PM PDT on May 26, 2017 (GMT -0700)
Camarillo

Weather History for KCMA - August, 2013

Change the Weather History Date:

Sunday, August 11, 2013

  Actual Average Record
Temperature  
Mean Temperature 67 °F 68 °F  
Max Temperature 74 °F 77 °F 88 °F (1998)
Min Temperature 60 °F 58 °F 48 °F (1948)
Degree Days  
Heating Degree Days 0 0  
Month to date heating degree days 1 0  
Since 1 June heating degree days 3 53  
Since 1 July heating degree days 3 10  
Cooling Degree Days 2 3  
Month to date cooling degree days 10 33  
Year to date cooling degree days 379 158  
Since 1 June cooling degree days 273 127  
Growing Degree Days 16 (Base 50)    
Moisture  
Dew Point 57 °F    
Average Humidity 74    
Maximum Humidity 90    
Minimum Humidity 57    
Precipitation  
Precipitation 0.00 in 0.00 in 0.00 in (2017)
Month to date precipitation 0.00 0.01  
Year to date precipitation 2.19 11.01  
Since 1 July precipitation 0.04  
Sea Level Pressure  
Sea Level Pressure 29.98 in    
Wind  
Wind Speed 4 mph (SW)    
Max Wind Speed 14 mph    
Max Gust Speed 22 mph    
Visibility 9 miles    
Events      
T = Trace of Precipitation, MM = Missing Value Source: NWS Daily Summary

Daily Weather History Graph

Daily Weather History Graph

Search for Another Location

Airport or City:

Trip Planner

Search our weather history database for the weather conditions in past years. The results will help you decide how hot, cold, wet, or windy it might be!

Date:

Astronomy

Aug. 11, 2013 Rise Set
Actual Time 6:14 AM PDT 7:47 PM PDT
Civil Twilight 5:48 AM PDT 8:14 PM PDT
Nautical Twilight 5:16 AM PDT 8:46 PM PDT
Astronomical Twilight 4:42 AM PDT 9:19 PM PDT
Moon 10:51 AM PDT (8/11) 10:23 PM PDT (8/11)
Length of Visible Light 14h 26m
Length of Day
13h 32m
Waxing Crescent, 23% of the Moon is Illuminated
Aug 11
Waxing Crescent
Aug 14
First Quarter
Aug 20
Full
Aug 28
Last Quarter
Sep 5
New

Hourly Weather History & Observations

Time (PDT) Temp. Dew Point Humidity Pressure Visibility Wind Dir Wind Speed Gust Speed Precip Events Conditions
12:55 AM 61.0 °F 57.0 °F 87% 30.00 in 9.0 mi Calm Calm - N/A   Scattered Clouds
1:08 AM 60.8 °F 57.2 °F 88% 29.97 in 10.0 mi Calm Calm - N/A   Mostly Cloudy
1:55 AM 61.0 °F 57.0 °F 87% 30.00 in 9.0 mi South 3.5 mph - N/A   Overcast
2:55 AM 61.0 °F 57.0 °F 87% 30.00 in 10.0 mi Calm Calm - N/A   Overcast
3:55 AM 61.0 °F 57.0 °F 87% 30.00 in 9.0 mi Calm Calm - N/A   Overcast
4:55 AM 61.0 °F 57.0 °F 87% 30.00 in 8.0 mi Calm Calm - N/A   Overcast
5:55 AM 60.1 °F 57.0 °F 90% 30.00 in 6.0 mi Calm Calm - N/A   Overcast
6:55 AM 61.0 °F 57.0 °F 87% 30.01 in 6.0 mi Calm Calm - N/A   Overcast
7:55 AM 62.1 °F 57.0 °F 84% 30.02 in 6.0 mi Calm Calm - N/A   Haze
8:55 AM 63.0 °F 57.0 °F 81% 30.02 in 8.0 mi Calm Calm - N/A   Overcast
9:47 AM 64.4 °F 57.2 °F 77% 29.99 in 10.0 mi SW 4.6 mph - N/A   Overcast
9:55 AM 64.0 °F 57.0 °F 78% 30.02 in 10.0 mi Calm Calm - N/A   Overcast
10:55 AM 66.9 °F 57.0 °F 70% 30.02 in 10.0 mi SW 4.6 mph - N/A   Overcast
11:16 AM 68.0 °F 57.2 °F 68% 29.99 in 10.0 mi Variable 4.6 mph - N/A   Scattered Clouds
11:55 AM 70.0 °F 57.9 °F 65% 30.00 in 10.0 mi SW 8.1 mph - N/A   Scattered Clouds
12:55 PM 72.0 °F 57.9 °F 61% 29.99 in 10.0 mi SW 10.4 mph 21.9 mph N/A   Clear
1:55 PM 73.0 °F 57.0 °F 57% 29.98 in 10.0 mi SW 10.4 mph - N/A   Clear
2:55 PM 72.0 °F 57.9 °F 61% 29.97 in 10.0 mi West 11.5 mph - N/A   Clear
3:55 PM 70.0 °F 57.0 °F 63% 29.96 in 10.0 mi WSW 10.4 mph - N/A   Clear
4:55 PM 70.0 °F 57.0 °F 63% 29.95 in 10.0 mi West 10.4 mph - N/A   Clear
5:55 PM 68.0 °F 57.9 °F 70% 29.93 in 10.0 mi WSW 8.1 mph - N/A   Clear
6:55 PM 66.0 °F 57.0 °F 73% 29.93 in 10.0 mi West 6.9 mph - N/A   Clear
7:55 PM 63.0 °F 57.0 °F 81% 29.94 in 10.0 mi WSW 5.8 mph - N/A   Clear
8:55 PM 63.0 °F 57.9 °F 84% 29.95 in 10.0 mi WSW 4.6 mph - N/A   Clear
9:55 PM 62.1 °F 57.9 °F 86% 29.96 in 10.0 mi SW 3.5 mph - N/A   Clear
10:55 PM 62.1 °F 57.9 °F 86% 29.96 in 10.0 mi Calm Calm - N/A   Clear
11:52 PM 62.6 °F 57.2 °F 82% 29.93 in 10.0 mi Calm Calm - N/A   Scattered Clouds
11:55 PM 62.1 °F 57.0 °F 84% 29.95 in 10.0 mi Calm Calm - N/A   Mostly Cloudy